• en France
  • Liste des pays
  • À 7 jours
  • Température de l'eau
  • Carte satellitaire
  • Carte météo
  • Widgets météo
  • user-avatar
    Se connecter

    Météo par heure à Ch'ŏngjin

    Ce jour, 25 Mai, Vendredi

    Heure Température Précipitation Vent Pression Humidité
    00:00 +16°C° 0,1 mm 1 m/s 750 mmHg 88%
    01:00 +16°C° 0,1 mm 1 m/s 751 mmHg 88%
    02:00 +16°C° 0,1 mm 1 m/s 751 mmHg 89%
    03:00 +16°C° 0 mm 2 m/s 751 mmHg 90%
    04:00 +16°C° 0 mm 2 m/s 751 mmHg 88%
    05:00 +16°C° 0 mm 2 m/s 752 mmHg 87%
    06:00 +17°C° 0 mm 2 m/s 752 mmHg 85%
    07:00 +19°C° 0 mm 2 m/s 752 mmHg 75%
    08:00 +21°C° 0 mm 2 m/s 752 mmHg 65%
    09:00 +24°C° 0 mm 3 m/s 753 mmHg 53%
    10:00 +25°C° 0 mm 3 m/s 753 mmHg 48%
    11:00 +26°C° 0 mm 4 m/s 753 mmHg 43%
    12:00 +27°C° 0 mm 4 m/s 753 mmHg 38%
    13:00 +27°C° 0 mm 4 m/s 753 mmHg 39%
    14:00 +27°C° 0 mm 4 m/s 753 mmHg 41%
    15:00 +27°C° 0 mm 4 m/s 753 mmHg 38%
    16:00 +26°C° 0 mm 3 m/s 753 mmHg 43%
    17:00 +25°C° 0 mm 3 m/s 754 mmHg 49%
    18:00 +22°C° 0 mm 3 m/s 754 mmHg 54%
    19:00 +20°C° 0 mm 3 m/s 755 mmHg 61%
    20:00 +18°C° 0 mm 2 m/s 755 mmHg 69%
    21:00 +16°C° 0 mm 2 m/s 755 mmHg 75%
    22:00 +16°C° 0,1 mm 2 m/s 756 mmHg 76%
    23:00 +15°C° 0,1 mm 2 m/s 756 mmHg 76%

    Demain, 26 Mai, Samedi

    Heure Température Précipitation Vent Pression Humidité
    00:00 +15°C° 0,1 mm 1 m/s 756 mmHg 77%
    01:00 +15°C° 0,1 mm 1 m/s 757 mmHg 78%
    02:00 +15°C° 0,1 mm 1 m/s 757 mmHg 80%
    03:00 +14°C° 0,1 mm 1 m/s 757 mmHg 82%
    04:00 +15°C° 0,2 mm 1 m/s 757 mmHg 84%
    05:00 +15°C° 0,2 mm 1 m/s 757 mmHg 87%
    06:00 +15°C° 0,2 mm 1 m/s 757 mmHg 89%
    07:00 +16°C° 0,4 mm 1 m/s 757 mmHg 87%
    08:00 +17°C° 0,4 mm 2 m/s 757 mmHg 86%
    09:00 +18°C° 0,4 mm 2 m/s 757 mmHg 84%
    10:00 +18°C° 0,5 mm 2 m/s 757 mmHg 84%
    11:00 +19°C° 0,5 mm 2 m/s 757 mmHg 84%
    12:00 +19°C° 0,5 mm 2 m/s 757 mmHg 84%
    13:00 +19°C° 0,4 mm 2 m/s 757 mmHg 84%
    14:00 +19°C° 0,4 mm 2 m/s 757 mmHg 83%
    15:00 +19°C° 0,4 mm 2 m/s 757 mmHg 83%
    16:00 +19°C° 0,1 mm 2 m/s 757 mmHg 82%
    17:00 +19°C° 0,1 mm 2 m/s 757 mmHg 81%
    18:00 +20°C° 0,1 mm 2 m/s 757 mmHg 80%
    19:00 +19°C° 0 mm 1 m/s 757 mmHg 85%
    20:00 +18°C° 0 mm 1 m/s 757 mmHg 90%
    21:00 +15°C° 0 mm 1 m/s 757 mmHg 95%
    22:00 +15°C° 0 mm 1 m/s 757 mmHg 95%
    23:00 +15°C° 0 mm 1 m/s 757 mmHg 95%

    Après-demain, 27 Mai, Dimanche

    Heure Température Précipitation Vent Pression Humidité
    00:00 +15°C° 0 mm 1 m/s 758 mmHg 96%
    01:00 +15°C° 0 mm 1 m/s 757 mmHg 95%
    02:00 +15°C° 0 mm 1 m/s 757 mmHg 95%
    03:00 +15°C° 0 mm 1 m/s 757 mmHg 95%
    04:00 +15°C° 0,1 mm 1 m/s 757 mmHg 95%
    05:00 +15°C° 0,1 mm 1 m/s 757 mmHg 94%
    06:00 +16°C° 0,1 mm 1 m/s 756 mmHg 94%
    07:00 +16°C° 0,2 mm 1 m/s 756 mmHg 93%
    08:00 +18°C° 0,2 mm 1 m/s 756 mmHg 91%
    09:00 +19°C° 0,2 mm 1 m/s 755 mmHg 90%
    10:00 +19°C° 0 mm 2 m/s 755 mmHg 84%
    11:00 +21°C° 0 mm 2 m/s 755 mmHg 78%
    12:00 +23°C° 0 mm 2 m/s 754 mmHg 72%
    13:00 +23°C° 0,2 mm 2 m/s 754 mmHg 72%
    14:00 +23°C° 0,2 mm 2 m/s 754 mmHg 72%
    15:00 +23°C° 0,2 mm 2 m/s 754 mmHg 71%
    16:00 +23°C° 0,2 mm 2 m/s 754 mmHg 72%
    17:00 +21°C° 0,2 mm 2 m/s 754 mmHg 73%
    18:00 +21°C° 0,2 mm 2 m/s 753 mmHg 74%
    19:00 +19°C° 0,1 mm 2 m/s 754 mmHg 80%
    20:00 +17°C° 0,1 mm 2 m/s 755 mmHg 87%
    21:00 +15°C° 0,1 mm 2 m/s 755 mmHg 93%
    22:00 +15°C° 0 mm 2 m/s 756 mmHg 93%
    23:00 +15°C° 0 mm 2 m/s 756 mmHg 92%

    28 Mai, Lundi

    Heure Température Précipitation Vent Pression Humidité
    00:00 +15°C° 0 mm 2 m/s 756 mmHg 92%
    01:00 +14°C° 0 mm 2 m/s 756 mmHg 91%
    02:00 +14°C° 0 mm 2 m/s 756 mmHg 91%
    03:00 +14°C° 0 mm 2 m/s 756 mmHg 91%
    04:00 +14°C° 0 mm 2 m/s 756 mmHg 89%
    05:00 +14°C° 0 mm 2 m/s 756 mmHg 88%
    06:00 +15°C° 0 mm 1 m/s 756 mmHg 86%
    07:00 +17°C° 0 mm 2 m/s 756 mmHg 77%
    08:00 +20°C° 0 mm 2 m/s 756 mmHg 67%
    09:00 +24°C° 0 mm 2 m/s 755 mmHg 58%
    10:00 +25°C° 0 mm 2 m/s 755 mmHg 56%
    11:00 +25°C° 0 mm 3 m/s 755 mmHg 54%
    12:00 +26°C° 0 mm 3 m/s 755 mmHg 53%
    13:00 +26°C° 0,1 mm 3 m/s 754 mmHg 56%
    14:00 +25°C° 0,1 mm 3 m/s 754 mmHg 59%
    15:00 +25°C° 0,1 mm 4 m/s 754 mmHg 62%
    16:00 +22°C° 0,2 mm 3 m/s 753 mmHg 69%
    17:00 +21°C° 0,2 mm 2 m/s 753 mmHg 77%
    18:00 +19°C° 0,2 mm 2 m/s 753 mmHg 84%
    19:00 +18°C° 0 mm 2 m/s 754 mmHg 88%
    20:00 +18°C° 0 mm 1 m/s 754 mmHg 92%
    21:00 +16°C° 0 mm 1 m/s 754 mmHg 96%
    22:00 +15°C° 0,2 mm 1 m/s 754 mmHg 96%
    23:00 +15°C° 0,2 mm 1 m/s 754 mmHg 96%

    29 Mai, Mardi

    Heure Température Précipitation Vent Pression Humidité
    00:00 +15°C° 0,2 mm 1 m/s 754 mmHg 96%
    01:00 +15°C° 0,5 mm 1 m/s 754 mmHg 96%
    02:00 +14°C° 0,5 mm 2 m/s 754 mmHg 97%
    03:00 +14°C° 0,5 mm 2 m/s 754 mmHg 97%
    04:00 +14°C° 0,2 mm 2 m/s 754 mmHg 96%
    05:00 +14°C° 0,2 mm 2 m/s 754 mmHg 95%
    06:00 +15°C° 0,2 mm 2 m/s 754 mmHg 94%
    07:00 +16°C° 0,1 mm 2 m/s 754 mmHg 90%
    08:00 +17°C° 0,1 mm 2 m/s 754 mmHg 86%
    09:00 +19°C° 0,1 mm 3 m/s 754 mmHg 82%
    10:00 +19°C° 0,2 mm 3 m/s 754 mmHg 82%
    11:00 +19°C° 0,2 mm 3 m/s 754 mmHg 82%
    12:00 +19°C° 0,2 mm 3 m/s 754 mmHg 82%
    13:00 +20°C° 0,3 mm 3 m/s 753 mmHg 82%
    14:00 +20°C° 0,3 mm 3 m/s 753 mmHg 81%
    15:00 +20°C° 0,3 mm 2 m/s 753 mmHg 80%
    16:00 +20°C° 0,1 mm 2 m/s 753 mmHg 82%
    17:00 +19°C° 0,1 mm 2 m/s 753 mmHg 83%
    18:00 +19°C° 0,1 mm 2 m/s 753 mmHg 85%
    19:00 +18°C° 0,1 mm 2 m/s 753 mmHg 89%
    20:00 +18°C° 0,1 mm 1 m/s 754 mmHg 93%
    21:00 +16°C° 0,1 mm 1 m/s 754 mmHg 97%
    22:00 +15°C° 0 mm 1 m/s 754 mmHg 97%
    23:00 +15°C° 0 mm 1 m/s 754 mmHg 97%

    30 Mai, Mercredi

    Heure Température Précipitation Vent Pression Humidité
    00:00 +15°C° 0 mm 1 m/s 755 mmHg 96%
    01:00 +15°C° 0 mm 1 m/s 755 mmHg 96%
    02:00 +15°C° 0 mm 1 m/s 755 mmHg 96%
    03:00 +15°C° 0 mm 1 m/s 755 mmHg 96%
    04:00 +15°C° 0 mm 1 m/s 755 mmHg 94%
    05:00 +16°C° 0 mm 1 m/s 755 mmHg 93%
    06:00 +16°C° 0 mm 1 m/s 755 mmHg 92%
    07:00 +19°C° 0,1 mm 1 m/s 755 mmHg 85%
    08:00 +21°C° 0,1 mm 1 m/s 755 mmHg 79%
    09:00 +22°C° 0,1 mm 1 m/s 755 mmHg 72%
    10:00 +23°C° 0,4 mm 2 m/s 755 mmHg 70%
    11:00 +24°C° 0,4 mm 2 m/s 755 mmHg 68%
    12:00 +25°C° 0,4 mm 2 m/s 755 mmHg 66%
    13:00 +25°C° 1,1 mm 3 m/s 755 mmHg 66%
    14:00 +26°C° 1,1 mm 3 m/s 755 mmHg 65%
    15:00 +26°C° 1,1 mm 3 m/s 754 mmHg 65%
    16:00 +25°C° 0,5 mm 3 m/s 754 mmHg 68%
    17:00 +24°C° 0,5 mm 3 m/s 755 mmHg 72%
    18:00 +24°C° 0,5 mm 2 m/s 755 mmHg 76%
    19:00 +21°C° 0,8 mm 2 m/s 755 mmHg 79%
    20:00 +20°C° 0,8 mm 2 m/s 755 mmHg 82%
    21:00 +18°C° 0,8 mm 2 m/s 756 mmHg 85%
    22:00 +18°C° 0 mm 2 m/s 756 mmHg 84%
    23:00 +18°C° 0 mm 2 m/s 756 mmHg 83%
    Voir plus